Regional Weather Roundup
Issued by NWS Albany, NY

Current Version | Previous Version | Graphics & Text | Print | Product List | Glossary Off
Versions: 1 2 3 4 5 6 7 8 9 10 11 12 13 14 15 16 17 18 19 20 21 22 23 24 25 26 27 28 29 30 31 32 33 34 35 36 37 38 39 40 41 42 43 44 45 46 47 48 49 50

000
ASUS41 KALY 300210
RWRALY

NEW YORK STATE HOURLY WEATHER ROUNDUP
NATIONAL WEATHER SERVICE ALBANY NY
900 PM EST THU JAN 29 2015

NOTE: "FAIR" INDICATES FEW OR NO CLOUDS BELOW 12,000 FEET WITH NO
SIGNIFICANT WEATHER AND/OR NO OBSTRUCTIONS TO VISIBILITY.

NYZ032-033-038>043-046>054-057>066-NYZ062>081-300300-
EAST


CITY           SKY/WX    TMP DP  RH WIND       PRES   REMARKS
ALBANY         CLOUDY    30   8  39 S12       29.99F WCI  20
GLENS FALLS    CLOUDY    26  10  50 SW5       29.98F WCI  20
POUGHKEEPSIE   CLOUDY    31  20  63 CALM      30.06S
NEWBURGH       CLOUDY    28  23  80 S12       30.05F WCI  18
MONTGOMERY     CLOUDY    29  18  63 CALM      30.02F
WHITE PLAINS   CLOUDY    30  23  75 S5        30.04F WCI  25
ISLIP          CLOUDY    31  26  82 CALM      30.06F
NEW YORK CITY  CLOUDY    35  26  69 S8        30.06F WCI  29
CENTRAL PARK   CLOUDY    35  24  64 VRB3      30.07F
$$

NYZ005>009-017-018-044>046-055-056-300300-
CENTRAL


CITY           SKY/WX    TMP DP  RH WIND       PRES   REMARKS
FULTON         LGT SNOW  29  25  85 S6        29.81S FOG     WCI  23
SYRACUSE       LGT SNOW  27  25  92 S8        29.82F FOG     WCI  19
ROME           LGT SNOW  28  25  88 SE8       29.90F VSB 3/4 WCI  20
ELMIRA         CLOUDY    28  21  75 S10       29.85S WCI  19
BINGHAMTON     CLOUDY    23  17  78 S13G21    29.83F WCI  11
MONTICELLO     CLOUDY    21  16  79 SE8       29.97F WCI  12
$$

NYZ026>034-041>043-300300-
NORTH


CITY           SKY/WX    TMP DP  RH WIND       PRES   REMARKS
WATERTOWN      LGT SNOW  32  26  78 S16G25    29.77F WCI  21
FORT DRUM      NOT AVBL
MASSENA        LGT SNOW  32  31  96 S12G21    29.81S FOG     WCI  23
SARANAC LAKE   LGT SNOW  28  21  75 S17G29    29.74F WCI  16
PLATTSBURGH    CLOUDY    30  14  51 SE24G36   29.83F WCI  16
$$

NYZ001>004-010>016-019>021-300300-
WEST


CITY           SKY/WX    TMP DP  RH WIND       PRES   REMARKS
NIAGARA FALLS  LGT SNOW  31  28  89 NW17      29.76R FOG     WCI  19
BUFFALO        LGT SNOW  33  31  92 W14       29.75R FOG     WCI  23
DUNKIRK        LGT SNOW  32  31  96 W15G24    29.80R FOG     WCI  22
JAMESTOWN      CLOUDY    32  30  93 W18       29.75R WCI  20
WELLSVILLE     LGT SNOW  25  22  88 S10       29.74S FOG     WCI  15
ROCHESTER      LGT SNOW  31  28  89 SW10G17   29.76S FOG     WCI  22
PENN YAN       CLOUDY    28  20  71 S17G23    29.79F WCI  16
$$

             KEY
       WCI = WIND CHILL INDEX
       VSB = VISIBILITY
       HX  = HEAT INDEX
$$


USA.gov is the U.S. government's official web portal to all federal, state and local government web resources and services.